Time,TemperatureF,DewpointF,PressureIn,WindDirection,WindDirectionDegrees,WindSpeedMPH,WindSpeedGustMPH,Humidity,HourlyPrecipIn,Conditions,Clouds,dailyrainin,SoftwareType,DateUTC
2013-11-20 00:02:00,35.8,29.6,29.10,SSE,157,18.1,18.1,78,0.00,,,0.00,WUHU21623XXSP,2013-11-20 06:02:00,
2013-11-20 00:07:00,35.8,29.2,29.09,SE,135,19.0,22.4,77,0.00,,,0.00,WUHU21623XXSP,2013-11-20 06:07:00,
2013-11-20 00:12:00,35.8,29.2,29.10,ESE,112,19.5,23.7,77,0.00,,,0.00,WUHU21623XXSP,2013-11-20 06:12:00,
2013-11-20 00:17:00,35.8,29.2,29.10,SE,135,19.7,23.7,77,0.00,,,0.00,WUHU21623XXSP,2013-11-20 06:17:00,
2013-11-20 00:22:00,35.8,29.6,29.09,SE,135,21.0,21.0,78,0.00,,,0.00,WUHU21623XXSP,2013-11-20 06:22:00,
2013-11-20 00:27:00,35.8,29.2,29.09,SE,135,20.6,24.2,77,0.00,,,0.00,WUHU21623XXSP,2013-11-20 06:27:00,
2013-11-20 00:32:00,35.8,29.2,29.09,ESE,112,21.3,24.2,77,0.00,,,0.00,WUHU21623XXSP,2013-11-20 06:32:00,
2013-11-20 00:37:00,35.8,29.2,29.09,SE,135,19.7,23.5,77,0.00,,,0.00,WUHU21623XXSP,2013-11-20 06:37:00,
2013-11-20 00:42:00,35.8,29.2,29.09,SE,135,20.4,21.9,77,0.00,,,0.00,WUHU21623XXSP,2013-11-20 06:42:00,
2013-11-20 00:47:00,35.8,29.2,29.09,SE,135,20.8,21.0,77,0.00,,,0.00,WUHU21623XXSP,2013-11-20 06:47:00,
2013-11-20 00:52:00,35.8,29.2,29.09,SE,135,21.9,21.9,77,0.00,,,0.00,WUHU21623XXSP,2013-11-20 06:52:00,
2013-11-20 00:57:00,35.8,29.2,29.08,SE,135,17.4,21.9,77,0.00,,,0.00,WUHU21623XXSP,2013-11-20 06:57:00,
2013-11-20 01:02:00,35.8,29.2,29.09,ESE,112,18.1,21.9,77,0.00,,,0.00,WUHU21623XXSP,2013-11-20 07:02:00,
2013-11-20 01:07:00,35.8,29.2,29.09,SE,135,16.3,20.6,77,0.00,,,0.00,WUHU21623XXSP,2013-11-20 07:07:00,
2013-11-20 01:12:00,35.8,29.2,29.09,SSE,157,16.8,20.6,77,0.00,,,0.00,WUHU21623XXSP,2013-11-20 07:12:00,
2013-11-20 01:17:00,35.8,29.2,29.08,SSE,157,21.7,21.7,77,0.00,,,0.00,WUHU21623XXSP,2013-11-20 07:17:00,
2013-11-20 01:22:00,35.8,29.2,29.09,SE,135,17.2,21.7,77,0.00,,,0.00,WUHU21623XXSP,2013-11-20 07:22:00,
2013-11-20 01:27:00,35.8,29.2,29.09,SE,135,20.6,20.6,77,0.00,,,0.00,WUHU21623XXSP,2013-11-20 07:27:00,
2013-11-20 01:32:00,35.8,29.2,29.09,SE,135,25.5,25.5,77,0.00,,,0.00,WUHU21623XXSP,2013-11-20 07:32:00,
2013-11-20 01:37:00,35.8,29.2,29.09,SE,135,22.6,25.5,77,0.00,,,0.00,WUHU21623XXSP,2013-11-20 07:37:00,
2013-11-20 01:42:00,35.8,29.2,29.09,SE,135,21.0,24.4,77,0.00,,,0.00,WUHU21623XXSP,2013-11-20 07:42:00,
2013-11-20 01:47:00,35.4,28.9,29.09,SE,135,19.2,24.4,77,0.00,,,0.00,WUHU21623XXSP,2013-11-20 07:47:00,
2013-11-20 01:52:00,35.4,28.9,29.10,ESE,112,20.4,20.4,77,0.00,,,0.00,WUHU21623XXSP,2013-11-20 07:52:00,
2013-11-20 01:57:00,35.4,28.9,29.09,SE,135,19.5,20.4,77,0.00,,,0.00,WUHU21623XXSP,2013-11-20 07:57:00,
2013-11-20 02:02:00,35.4,28.9,29.09,SE,135,19.7,23.3,77,0.00,,,0.00,WUHU21623XXSP,2013-11-20 08:02:00,
2013-11-20 02:07:00,35.4,28.9,29.09,SE,135,23.0,23.3,77,0.00,,,0.00,WUHU21623XXSP,2013-11-20 08:07:00,
2013-11-20 02:12:00,35.4,28.9,29.10,SE,135,17.7,23.0,77,0.00,,,0.00,WUHU21623XXSP,2013-11-20 08:12:00,
2013-11-20 02:17:00,35.4,29.2,29.10,SE,135,18.6,21.3,78,0.00,,,0.00,WUHU21623XXSP,2013-11-20 08:17:00,
2013-11-20 02:22:00,35.4,29.2,29.10,SE,135,21.9,21.9,78,0.00,,,0.00,WUHU21623XXSP,2013-11-20 08:22:00,
2013-11-20 02:27:00,35.4,29.2,29.10,SE,135,17.9,21.9,78,0.00,,,0.00,WUHU21623XXSP,2013-11-20 08:27:00,
2013-11-20 02:32:00,35.4,29.2,29.10,SE,135,20.6,21.7,78,0.00,,,0.00,WUHU21623XXSP,2013-11-20 08:32:00,
2013-11-20 02:37:00,35.4,29.5,29.11,SE,135,21.0,21.7,79,0.00,,,0.00,WUHU21623XXSP,2013-11-20 08:37:00,
2013-11-20 02:42:00,35.4,29.5,29.10,SE,135,21.3,21.3,79,0.00,,,0.00,WUHU21623XXSP,2013-11-20 08:42:00,
2013-11-20 02:47:00,35.4,29.5,29.10,ESE,112,20.4,21.3,79,0.00,,,0.00,WUHU21623XXSP,2013-11-20 08:47:00,
2013-11-20 02:52:00,35.2,29.3,29.10,SE,135,19.0,20.4,79,0.00,,,0.00,WUHU21623XXSP,2013-11-20 08:52:00,
2013-11-20 02:57:00,35.2,29.3,29.10,SE,135,18.8,20.1,79,0.00,,,0.00,WUHU21623XXSP,2013-11-20 08:57:00,
2013-11-20 03:02:00,35.2,29.3,29.10,SSE,157,20.6,20.6,79,0.00,,,0.00,WUHU21623XXSP,2013-11-20 09:02:00,
2013-11-20 03:07:00,35.4,29.5,29.10,SE,135,19.5,20.6,79,0.00,,,0.00,WUHU21623XXSP,2013-11-20 09:07:00,
2013-11-20 03:12:00,35.4,29.5,29.10,SE,135,15.9,20.6,79,0.00,,,0.00,WUHU21623XXSP,2013-11-20 09:12:00,
2013-11-20 03:17:00,35.2,29.3,29.11,SE,135,16.6,19.5,79,0.00,,,0.00,WUHU21623XXSP,2013-11-20 09:17:00,
2013-11-20 03:22:00,35.2,29.3,29.10,SE,135,15.2,18.6,79,0.00,,,0.00,WUHU21623XXSP,2013-11-20 09:22:00,
2013-11-20 03:27:00,35.2,29.7,29.10,SE,135,19.5,19.5,80,0.00,,,0.00,WUHU21623XXSP,2013-11-20 09:27:00,
2013-11-20 03:32:00,35.4,29.5,29.10,SE,135,11.2,19.5,79,0.00,,,0.00,WUHU21623XXSP,2013-11-20 09:32:00,
2013-11-20 03:38:00,35.4,29.5,29.10,SE,135,18.3,19.5,79,0.00,,,0.00,WUHU21623XXSP,2013-11-20 09:38:00,
2013-11-20 03:39:00,35.4,29.8,29.09,SE,135,14.3,18.3,80,0.00,,,0.00,WUHU21623XXSP,2013-11-20 09:39:00,
2013-11-20 03:44:00,35.4,29.8,29.09,SE,135,16.6,18.8,80,0.00,,,0.00,WUHU21623XXSP,2013-11-20 09:44:00,
2013-11-20 03:52:00,35.4,29.5,29.08,ESE,112,20.4,22.4,79,0.00,,,0.00,WUHU21623XXSP,2013-11-20 09:52:00,
2013-11-20 03:56:00,35.4,29.5,29.08,SE,135,19.2,22.4,79,0.00,,,0.00,WUHU21623XXSP,2013-11-20 09:56:00,
2013-11-20 04:03:00,35.4,29.5,29.08,SE,135,16.8,20.4,79,0.00,,,0.00,WUHU21623XXSP,2013-11-20 10:03:00,
2013-11-20 04:09:00,35.4,29.5,29.08,ESE,112,21.0,21.0,79,0.00,,,0.00,WUHU21623XXSP,2013-11-20 10:09:00,
2013-11-20 04:16:00,35.4,29.5,29.08,SE,135,17.4,21.0,79,0.00,,,0.00,WUHU21623XXSP,2013-11-20 10:16:00,
2013-11-20 04:18:00,35.4,29.5,29.08,SE,135,20.8,21.0,79,0.00,,,0.00,WUHU21623XXSP,2013-11-20 10:18:00,
2013-11-20 04:26:00,35.4,29.5,29.08,SE,135,19.5,19.5,79,0.00,,,0.00,WUHU21623XXSP,2013-11-20 10:26:00,
2013-11-20 04:35:00,35.4,29.5,29.07,SE,135,15.9,19.5,79,0.00,,,0.00,WUHU21623XXSP,2013-11-20 10:35:00,
2013-11-20 04:43:00,35.4,29.5,29.07,SE,135,19.2,20.1,79,0.00,,,0.00,WUHU21623XXSP,2013-11-20 10:43:00,
2013-11-20 04:50:00,35.4,29.5,29.07,ESE,112,20.6,21.9,79,0.00,,,0.00,WUHU21623XXSP,2013-11-20 10:50:00,
2013-11-20 04:59:00,35.4,29.5,29.07,SE,135,19.7,20.4,79,0.00,,,0.00,WUHU21623XXSP,2013-11-20 10:59:00,
2013-11-20 05:08:00,35.4,29.5,29.06,SE,135,21.0,21.5,79,0.00,,,0.00,WUHU21623XXSP,2013-11-20 11:08:00,
2013-11-20 05:16:00,35.4,29.5,29.06,SE,135,21.3,21.9,79,0.00,,,0.00,WUHU21623XXSP,2013-11-20 11:16:00,
2013-11-20 05:20:00,35.4,29.5,29.06,ESE,112,19.9,21.3,79,0.00,,,0.00,WUHU21623XXSP,2013-11-20 11:20:00,
2013-11-20 05:30:00,35.4,29.5,29.06,SE,135,18.6,22.1,79,0.00,,,0.00,WUHU21623XXSP,2013-11-20 11:30:00,
2013-11-20 05:38:00,35.4,29.5,29.05,ESE,112,19.9,24.2,79,0.00,,,0.00,WUHU21623XXSP,2013-11-20 11:38:00,
2013-11-20 05:44:00,35.4,29.5,29.05,ESE,112,17.4,24.2,79,0.00,,,0.00,WUHU21623XXSP,2013-11-20 11:44:00,
2013-11-20 05:50:00,35.2,29.3,29.05,SE,135,20.6,20.6,79,0.00,,,0.00,WUHU21623XXSP,2013-11-20 11:50:00,
2013-11-20 05:59:00,35.4,29.5,29.05,SE,135,19.5,20.6,79,0.00,,,0.00,WUHU21623XXSP,2013-11-20 11:59:00,
2013-11-20 06:05:00,35.4,29.5,29.06,SE,135,19.5,19.5,79,0.00,,,0.00,WUHU21623XXSP,2013-11-20 12:05:00,
2013-11-20 06:12:00,35.4,29.5,29.05,ESE,112,20.4,20.6,79,0.00,,,0.00,WUHU21623XXSP,2013-11-20 12:12:00,
2013-11-20 06:19:00,35.4,29.5,29.06,SE,135,22.1,23.5,79,0.00,,,0.00,WUHU21623XXSP,2013-11-20 12:19:00,
2013-11-20 06:24:00,35.4,29.5,29.06,SE,135,21.9,23.7,79,0.00,,,0.00,WUHU21623XXSP,2013-11-20 12:24:00,
2013-11-20 06:30:00,35.4,29.5,29.05,ESE,112,19.7,21.9,79,0.00,,,0.00,WUHU21623XXSP,2013-11-20 12:30:00,
2013-11-20 06:36:00,35.4,29.5,29.05,SE,135,21.0,21.0,79,0.00,,,0.00,WUHU21623XXSP,2013-11-20 12:36:00,
2013-11-20 06:43:00,35.4,29.5,29.05,SE,135,22.4,22.4,79,0.00,,,0.00,WUHU21623XXSP,2013-11-20 12:43:00,
2013-11-20 06:47:00,35.4,29.5,29.05,SE,135,20.1,22.4,79,0.00,,,0.00,WUHU21623XXSP,2013-11-20 12:47:00,
2013-11-20 06:54:00,35.4,29.5,29.05,SE,135,21.0,22.6,79,0.00,,,0.00,WUHU21623XXSP,2013-11-20 12:54:00,
2013-11-20 07:01:00,35.4,29.5,29.05,ESE,112,23.0,25.1,79,0.00,,,0.00,WUHU21623XXSP,2013-11-20 13:01:00,
2013-11-20 07:07:00,35.4,29.5,29.05,ESE,112,23.5,25.1,79,0.00,,,0.00,WUHU21623XXSP,2013-11-20 13:07:00,
2013-11-20 07:19:00,35.4,29.5,29.05,SE,135,20.8,25.5,79,0.00,,,0.00,WUHU21623XXSP,2013-11-20 13:19:00,
2013-11-20 07:23:00,35.4,29.5,29.05,ESE,112,18.6,25.5,79,0.00,,,0.00,WUHU21623XXSP,2013-11-20 13:23:00,
2013-11-20 07:28:00,35.4,29.5,29.05,ESE,112,20.6,25.5,79,0.00,,,0.00,WUHU21623XXSP,2013-11-20 13:28:00,
2013-11-20 07:33:00,35.4,29.8,29.06,SE,135,21.0,25.5,80,0.00,,,0.00,WUHU21623XXSP,2013-11-20 13:33:00,
2013-11-20 07:39:00,35.4,29.8,29.05,SE,135,22.4,23.7,80,0.00,,,0.00,WUHU21623XXSP,2013-11-20 13:39:00,
2013-11-20 07:45:00,35.4,29.5,29.06,ESE,112,20.8,23.7,79,0.00,,,0.00,WUHU21623XXSP,2013-11-20 13:45:00,
2013-11-20 07:51:00,35.4,29.5,29.06,SE,135,20.1,21.0,79,0.00,,,0.00,WUHU21623XXSP,2013-11-20 13:51:00,
2013-11-20 08:00:00,35.4,29.5,29.07,SE,135,18.6,20.1,79,0.00,,,0.00,WUHU21623XXSP,2013-11-20 14:00:00,
2013-11-20 08:04:00,35.6,29.7,29.07,SE,135,16.6,19.7,79,0.00,,,0.00,WUHU21623XXSP,2013-11-20 14:04:00,
2013-11-20 08:12:00,35.8,30.2,29.08,SE,135,21.0,21.0,80,0.00,,,0.00,WUHU21623XXSP,2013-11-20 14:12:00,
2013-11-20 08:17:00,35.8,30.2,29.08,SSE,157,15.9,21.0,80,0.00,,,0.00,WUHU21623XXSP,2013-11-20 14:17:00,
2013-11-20 08:23:00,35.8,30.2,29.07,SE,135,21.0,21.0,80,0.00,,,0.00,WUHU21623XXSP,2013-11-20 14:23:00,
2013-11-20 08:30:00,35.8,30.2,29.08,SSE,157,21.5,21.5,80,0.00,,,0.00,WUHU21623XXSP,2013-11-20 14:30:00,
2013-11-20 08:36:00,36.0,30.4,29.08,SE,135,20.1,21.5,80,0.00,,,0.00,WUHU21623XXSP,2013-11-20 14:36:00,
2013-11-20 08:42:00,36.0,30.4,29.08,SE,135,17.0,21.0,80,0.00,,,0.00,WUHU21623XXSP,2013-11-20 14:42:00,
2013-11-20 08:47:00,36.1,30.6,29.08,ESE,112,16.8,17.0,80,0.00,,,0.00,WUHU21623XXSP,2013-11-20 14:47:00,
2013-11-20 09:01:00,36.1,30.6,29.08,SE,135,17.9,17.9,80,0.00,,,0.00,WUHU21623XXSP,2013-11-20 15:01:00,
2013-11-20 09:06:00,36.1,30.8,29.07,SE,135,22.4,22.4,81,0.00,,,0.00,WUHU21623XXSP,2013-11-20 15:06:00,
2013-11-20 09:11:00,36.3,31.0,29.07,SSE,157,17.0,22.8,81,0.00,,,0.00,WUHU21623XXSP,2013-11-20 15:11:00,
2013-11-20 09:16:00,36.3,31.0,29.07,SE,135,15.9,22.8,81,0.00,,,0.00,WUHU21623XXSP,2013-11-20 15:16:00,
2013-11-20 09:21:00,36.3,31.0,29.07,ESE,112,17.9,22.1,81,0.00,,,0.00,WUHU21623XXSP,2013-11-20 15:21:00,
2013-11-20 09:26:00,36.3,31.0,29.08,ESE,112,18.1,18.1,81,0.00,,,0.00,WUHU21623XXSP,2013-11-20 15:26:00,
2013-11-20 09:31:00,36.3,31.0,29.07,SE,135,17.4,19.2,81,0.00,,,0.00,WUHU21623XXSP,2013-11-20 15:31:00,
2013-11-20 09:36:00,36.3,31.0,29.07,SSE,157,16.8,22.4,81,0.00,,,0.00,WUHU21623XXSP,2013-11-20 15:36:00,
2013-11-20 09:41:00,36.3,31.0,29.07,SE,135,20.1,22.4,81,0.00,,,0.00,WUHU21623XXSP,2013-11-20 15:41:00,
2013-11-20 09:46:00,36.3,31.0,29.07,SE,135,18.1,20.1,81,0.00,,,0.00,WUHU21623XXSP,2013-11-20 15:46:00,
2013-11-20 09:51:00,36.3,31.0,29.07,SE,135,17.0,19.5,81,0.00,,,0.00,WUHU21623XXSP,2013-11-20 15:51:00,
2013-11-20 09:56:00,36.3,31.0,29.07,ESE,112,21.3,21.3,81,0.00,,,0.00,WUHU21623XXSP,2013-11-20 15:56:00,
2013-11-20 10:01:00,36.1,30.8,29.07,SE,135,15.2,22.4,81,0.00,,,0.00,WUHU21623XXSP,2013-11-20 16:01:00,
2013-11-20 10:06:00,36.1,31.0,29.07,SE,135,21.9,22.4,81,0.00,,,0.00,WUHU21623XXSP,2013-11-20 16:06:00,
2013-11-20 10:11:00,36.1,31.0,29.07,ESE,112,19.2,21.9,81,0.00,,,0.00,WUHU21623XXSP,2013-11-20 16:11:00,
2013-11-20 10:16:00,36.0,31.0,29.07,SE,135,22.1,22.1,82,0.00,,,0.00,WUHU21623XXSP,2013-11-20 16:16:00,
2013-11-20 10:21:00,36.0,31.0,29.07,SE,135,21.5,22.1,82,0.00,,,0.00,WUHU21623XXSP,2013-11-20 16:21:00,
2013-11-20 10:26:00,36.0,31.0,29.06,SE,135,20.8,21.7,82,0.00,,,0.00,WUHU21623XXSP,2013-11-20 16:26:00,
2013-11-20 10:31:00,36.1,31.4,29.06,ESE,112,21.0,23.9,83,0.00,,,0.00,WUHU21623XXSP,2013-11-20 16:31:00,
2013-11-20 10:36:00,36.0,31.2,29.07,SE,135,17.9,23.9,83,0.00,,,0.00,WUHU21623XXSP,2013-11-20 16:36:00,
2013-11-20 10:41:00,35.8,31.1,29.07,SE,135,22.4,22.4,83,0.00,,,0.00,WUHU21623XXSP,2013-11-20 16:41:00,
2013-11-20 10:46:00,35.8,31.1,29.07,SE,135,18.3,22.6,83,0.00,,,0.00,WUHU21623XXSP,2013-11-20 16:46:00,
2013-11-20 10:51:00,35.4,31.0,29.06,SE,135,20.4,22.6,84,0.00,,,0.00,WUHU21623XXSP,2013-11-20 16:51:00,
2013-11-20 10:56:00,35.4,31.0,29.06,SE,135,19.5,20.4,84,0.00,,,0.00,WUHU21623XXSP,2013-11-20 16:56:00,
2013-11-20 11:01:00,35.2,30.8,29.06,ESE,112,17.0,19.5,84,0.00,,,0.00,WUHU21623XXSP,2013-11-20 17:01:00,
2013-11-20 11:06:00,35.2,31.1,29.06,SE,135,17.0,18.3,85,0.00,,,0.00,WUHU21623XXSP,2013-11-20 17:06:00,
2013-11-20 11:11:00,35.2,31.4,29.06,SE,135,18.3,18.3,86,0.00,,,0.00,WUHU21623XXSP,2013-11-20 17:11:00,
2013-11-20 11:16:00,35.2,31.4,29.06,SE,135,13.2,18.3,86,0.00,,,0.00,WUHU21623XXSP,2013-11-20 17:16:00,
2013-11-20 11:21:00,35.1,31.2,29.06,ESE,112,16.3,18.3,86,0.00,,,0.00,WUHU21623XXSP,2013-11-20 17:21:00,
2013-11-20 11:26:00,34.9,31.0,29.06,SE,135,17.7,19.5,86,0.00,,,0.00,WUHU21623XXSP,2013-11-20 17:26:00,
2013-11-20 11:31:00,34.9,31.3,29.05,ESE,112,15.9,19.5,87,0.00,,,0.00,WUHU21623XXSP,2013-11-20 17:31:00,
2013-11-20 11:36:00,34.9,31.3,29.05,ESE,112,15.9,15.9,87,0.00,,,0.00,WUHU21623XXSP,2013-11-20 17:36:00,
2013-11-20 11:41:00,34.9,31.3,29.05,ESE,112,15.9,15.9,87,0.00,,,0.00,WUHU21623XXSP,2013-11-20 17:41:00,
2013-11-20 11:46:00,34.9,31.3,29.05,ESE,112,13.0,15.9,87,0.00,,,0.00,WUHU21623XXSP,2013-11-20 17:46:00,
2013-11-20 11:51:00,34.9,31.3,29.05,ESE,112,13.0,15.9,87,0.00,,,0.00,WUHU21623XXSP,2013-11-20 17:51:00,
2013-11-20 11:56:00,34.9,31.3,29.04,ESE,112,13.0,13.0,87,0.00,,,0.00,WUHU21623XXSP,2013-11-20 17:56:00,
2013-11-20 12:01:00,34.9,31.3,29.04,ESE,112,13.0,13.0,87,0.00,,,0.00,WUHU21623XXSP,2013-11-20 18:01:00,
2013-11-20 12:06:00,34.7,31.1,29.04,ESE,112,13.0,13.0,87,0.00,,,0.00,WUHU21623XXSP,2013-11-20 18:06:00,
2013-11-20 12:11:00,34.7,31.1,29.04,ESE,112,13.0,13.0,89,0.00,,,0.00,WUHU21623XXSP,2013-11-20 18:11:00,
2013-11-20 12:16:00,34.9,31.7,29.04,ESE,112,13.0,13.0,89,0.00,,,0.00,WUHU21623XXSP,2013-11-20 18:16:00,
2013-11-20 12:21:00,34.7,31.7,29.03,ESE,112,13.0,13.0,89,0.00,,,0.00,WUHU21623XXSP,2013-11-20 18:21:00,
2013-11-20 12:26:00,34.7,31.7,29.03,ESE,112,17.2,17.2,89,0.00,,,0.00,WUHU21623XXSP,2013-11-20 18:26:00,
2013-11-20 12:31:00,34.5,31.7,29.03,SE,135,20.6,20.6,89,0.00,,,0.00,WUHU21623XXSP,2013-11-20 18:31:00,
2013-11-20 12:36:00,34.5,31.5,29.02,SE,135,20.6,20.6,90,0.00,,,0.00,WUHU21623XXSP,2013-11-20 18:36:00,
2013-11-20 12:41:00,34.5,31.8,29.03,SE,135,16.6,20.6,90,0.00,,,0.00,WUHU21623XXSP,2013-11-20 18:41:00,
2013-11-20 12:46:00,34.5,31.8,29.03,ESE,112,13.6,16.6,90,0.00,,,0.00,WUHU21623XXSP,2013-11-20 18:46:00,
2013-11-20 12:51:00,34.5,31.8,29.03,ESE,112,17.4,17.4,90,0.00,,,0.00,WUHU21623XXSP,2013-11-20 18:51:00,
2013-11-20 12:56:00,34.5,31.8,29.02,SE,135,16.3,17.4,90,0.00,,,0.00,WUHU21623XXSP,2013-11-20 18:56:00,
2013-11-20 13:01:00,34.5,31.8,29.02,SE,135,16.6,16.6,90,0.00,,,0.00,WUHU21623XXSP,2013-11-20 19:01:00,
2013-11-20 13:06:00,34.3,31.6,29.02,ESE,112,12.8,16.6,90,0.00,,,0.00,WUHU21623XXSP,2013-11-20 19:06:00,
2013-11-20 13:11:00,34.3,31.6,29.02,ESE,112,12.8,16.6,90,0.00,,,0.00,WUHU21623XXSP,2013-11-20 19:11:00,
2013-11-20 13:16:00,34.3,31.6,29.02,ESE,112,12.8,12.8,90,0.00,,,0.00,WUHU21623XXSP,2013-11-20 19:16:00,
2013-11-20 13:21:00,34.3,31.6,29.02,ESE,112,12.8,12.8,90,0.00,,,0.00,WUHU21623XXSP,2013-11-20 19:21:00,
2013-11-20 13:26:00,34.5,31.8,29.02,SE,135,13.2,13.2,90,0.00,,,0.00,WUHU21623XXSP,2013-11-20 19:26:00,
2013-11-20 13:31:00,34.5,31.8,29.01,SE,135,13.2,13.2,90,0.00,,,0.00,WUHU21623XXSP,2013-11-20 19:31:00,
2013-11-20 13:36:00,34.5,31.8,29.01,SE,135,13.2,13.2,90,0.00,,,0.00,WUHU21623XXSP,2013-11-20 19:36:00,
2013-11-20 13:41:00,34.5,31.8,29.01,SE,135,13.2,13.2,90,0.00,,,0.00,WUHU21623XXSP,2013-11-20 19:41:00,
2013-11-20 13:46:00,34.5,31.8,29.01,SE,135,13.2,13.2,90,0.00,,,0.00,WUHU21623XXSP,2013-11-20 19:46:00,
2013-11-20 14:12:00,35.2,32.8,29.00,ESE,112,18.8,18.8,91,0.00,,,0.00,WUHU21623XXSP,2013-11-20 20:12:00,
2013-11-20 14:17:00,35.2,32.8,29.01,ESE,112,15.2,18.8,91,0.00,,,0.00,WUHU21623XXSP,2013-11-20 20:17:00,
2013-11-20 14:22:00,35.2,32.8,29.01,SE,135,14.5,18.8,91,0.00,,,0.00,WUHU21623XXSP,2013-11-20 20:22:00,
2013-11-20 14:27:00,35.2,32.8,29.00,SE,135,14.5,15.2,91,0.00,,,0.00,WUHU21623XXSP,2013-11-20 20:27:00,
2013-11-20 14:32:00,35.2,32.8,29.01,SE,135,20.4,20.4,91,0.00,,,0.00,WUHU21623XXSP,2013-11-20 20:32:00,
2013-11-20 14:37:00,35.2,32.8,29.00,SE,135,20.4,20.4,91,0.00,,,0.00,WUHU21623XXSP,2013-11-20 20:37:00,
2013-11-20 14:42:00,35.2,32.8,29.00,SE,135,20.4,20.4,91,0.00,,,0.00,WUHU21623XXSP,2013-11-20 20:42:00,
2013-11-20 14:47:00,35.2,32.8,28.99,SE,135,20.4,20.4,91,0.00,,,0.00,WUHU21623XXSP,2013-11-20 20:47:00,
2013-11-20 14:52:00,35.2,32.8,28.99,SE,135,20.4,20.4,91,0.00,,,0.00,WUHU21623XXSP,2013-11-20 20:52:00,
2013-11-20 14:57:00,35.2,32.8,28.99,SE,135,20.4,20.4,91,0.00,,,0.00,WUHU21623XXSP,2013-11-20 20:57:00,
2013-11-20 15:02:00,35.2,32.8,28.99,ESE,112,21.0,21.0,91,0.00,,,0.00,WUHU21623XXSP,2013-11-20 21:02:00,
2013-11-20 15:07:00,34.9,32.5,28.99,SE,135,15.7,21.0,91,0.00,,,0.00,WUHU21623XXSP,2013-11-20 21:07:00,
2013-11-20 15:12:00,34.9,32.5,28.99,SE,135,19.0,19.0,91,0.00,,,0.00,WUHU21623XXSP,2013-11-20 21:12:00,
2013-11-20 15:17:00,34.9,32.5,28.99,SE,135,18.6,19.0,91,0.00,,,0.00,WUHU21623XXSP,2013-11-20 21:17:00,
2013-11-20 15:22:00,34.9,32.5,28.99,SE,135,13.2,18.6,91,0.00,,,0.00,WUHU21623XXSP,2013-11-20 21:22:00,
2013-11-20 15:27:00,34.9,32.5,28.99,SE,135,13.6,16.3,91,0.00,,,0.00,WUHU21623XXSP,2013-11-20 21:27:00,
2013-11-20 15:32:00,34.9,32.5,28.99,ESE,112,14.3,19.7,91,0.00,,,0.00,WUHU21623XXSP,2013-11-20 21:32:00,
2013-11-20 15:37:00,34.9,32.5,28.99,ESE,112,20.1,20.1,91,0.00,,,0.00,WUHU21623XXSP,2013-11-20 21:37:00,
2013-11-20 15:42:00,34.9,32.5,28.99,SE,135,12.8,20.1,91,0.00,,,0.00,WUHU21623XXSP,2013-11-20 21:42:00,
2013-11-20 15:47:00,34.9,32.7,28.99,ESE,112,18.3,18.3,92,0.00,,,0.00,WUHU21623XXSP,2013-11-20 21:47:00,
2013-11-20 15:52:00,34.9,32.5,28.99,SE,135,16.8,18.3,92,0.00,,,0.00,WUHU21623XXSP,2013-11-20 21:52:00,
2013-11-20 15:57:00,34.9,32.7,28.99,ESE,112,14.3,16.8,92,0.00,,,0.00,WUHU21623XXSP,2013-11-20 21:57:00,
2013-11-20 16:02:00,34.9,32.7,28.99,SE,135,12.1,16.1,92,0.00,,,0.00,WUHU21623XXSP,2013-11-20 22:02:00,
2013-11-20 16:07:00,34.9,32.7,28.99,ESE,112,12.1,13.6,92,0.00,,,0.00,WUHU21623XXSP,2013-11-20 22:07:00,
2013-11-20 16:12:00,34.9,32.7,28.99,SE,135,16.1,16.1,92,0.00,,,0.00,WUHU21623XXSP,2013-11-20 22:12:00,
2013-11-20 16:17:00,34.9,32.7,28.99,ESE,112,13.4,16.8,92,0.00,,,0.00,WUHU21623XXSP,2013-11-20 22:17:00,
2013-11-20 16:22:00,34.9,32.7,29.00,ESE,112,20.8,20.8,92,0.00,,,0.00,WUHU21623XXSP,2013-11-20 22:22:00,
2013-11-20 16:27:00,34.9,32.7,28.99,ESE,112,13.4,20.8,92,0.00,,,0.00,WUHU21623XXSP,2013-11-20 22:27:00,
2013-11-20 16:32:00,34.9,32.7,29.00,SE,135,15.2,16.1,92,0.00,,,0.00,WUHU21623XXSP,2013-11-20 22:32:00,
2013-11-20 16:37:00,34.9,32.7,28.99,SE,135,16.1,16.1,92,0.00,,,0.00,WUHU21623XXSP,2013-11-20 22:37:00,
2013-11-20 16:42:00,34.9,32.7,28.99,SE,135,15.4,16.1,92,0.00,,,0.00,WUHU21623XXSP,2013-11-20 22:42:00,
2013-11-20 16:47:00,34.9,32.7,28.99,SE,135,13.4,15.4,92,0.00,,,0.00,WUHU21623XXSP,2013-11-20 22:47:00,
2013-11-20 16:52:00,34.9,32.7,29.00,SE,135,15.9,15.9,92,0.00,,,0.00,WUHU21623XXSP,2013-11-20 22:52:00,
2013-11-20 16:57:00,35.1,32.9,28.99,SE,135,14.3,17.7,92,0.00,,,0.00,WUHU21623XXSP,2013-11-20 22:57:00,
2013-11-20 17:02:00,35.1,32.9,29.00,SE,135,17.2,17.7,92,0.00,,,0.00,WUHU21623XXSP,2013-11-20 23:02:00,
2013-11-20 17:07:00,35.1,32.9,28.99,SE,135,16.3,17.2,92,0.00,,,0.00,WUHU21623XXSP,2013-11-20 23:07:00,
2013-11-20 17:12:00,35.2,33.1,29.00,ESE,112,14.3,16.3,92,0.00,,,0.00,WUHU21623XXSP,2013-11-20 23:12:00,
2013-11-20 17:17:00,35.1,32.7,29.00,ESE,112,14.1,15.4,92,0.00,,,0.00,WUHU21623XXSP,2013-11-20 23:17:00,
2013-11-20 17:22:00,35.1,32.9,29.00,ESE,112,11.6,14.1,92,0.00,,,0.00,WUHU21623XXSP,2013-11-20 23:22:00,
2013-11-20 17:27:00,35.1,32.9,29.01,ESE,112,11.9,13.2,92,0.00,,,0.00,WUHU21623XXSP,2013-11-20 23:27:00,
2013-11-20 17:32:00,35.2,33.1,29.00,SE,135,15.7,15.7,92,0.00,,,0.00,WUHU21623XXSP,2013-11-20 23:32:00,
2013-11-20 17:37:00,35.2,33.1,29.00,SE,135,11.4,15.7,92,0.00,,,0.00,WUHU21623XXSP,2013-11-20 23:37:00,
2013-11-20 17:42:00,35.2,33.1,29.01,SE,135,14.3,14.3,92,0.00,,,0.00,WUHU21623XXSP,2013-11-20 23:42:00,
2013-11-20 17:47:00,35.2,33.1,29.01,SE,135,18.1,18.1,92,0.00,,,0.00,WUHU21623XXSP,2013-11-20 23:47:00,
2013-11-20 17:52:00,35.2,33.1,29.01,ESE,112,12.1,18.1,92,0.00,,,0.00,WUHU21623XXSP,2013-11-20 23:52:00,
2013-11-20 17:57:00,35.2,33.1,29.01,SE,135,14.3,14.8,92,0.00,,,0.00,WUHU21623XXSP,2013-11-20 23:57:00,
2013-11-20 18:02:00,35.2,33.1,29.02,SE,135,11.4,14.3,92,0.00,,,0.00,WUHU21623XXSP,2013-11-21 00:02:00,
2013-11-20 18:07:00,35.2,33.1,29.01,ESE,112,13.2,14.3,92,0.00,,,0.00,WUHU21623XXSP,2013-11-21 00:07:00,
2013-11-20 18:12:00,35.2,33.1,29.01,ESE,112,10.3,15.0,92,0.00,,,0.00,WUHU21623XXSP,2013-11-21 00:12:00,
2013-11-20 18:17:00,35.2,33.1,29.01,SE,135,15.9,15.9,92,0.00,,,0.00,WUHU21623XXSP,2013-11-21 00:17:00,
2013-11-20 18:22:00,35.2,33.1,29.01,SE,135,16.3,16.3,92,0.00,,,0.00,WUHU21623XXSP,2013-11-21 00:22:00,
2013-11-20 18:27:00,35.2,33.1,29.01,ESE,112,11.6,16.3,92,0.00,,,0.00,WUHU21623XXSP,2013-11-21 00:27:00,
2013-11-20 18:32:00,35.2,33.1,29.01,SE,135,17.2,17.2,92,0.00,,,0.00,WUHU21623XXSP,2013-11-21 00:32:00,
2013-11-20 18:37:00,35.2,33.1,29.02,SE,135,13.2,17.2,92,0.00,,,0.00,WUHU21623XXSP,2013-11-21 00:37:00,
2013-11-20 18:42:00,35.2,33.1,29.02,ESE,112,12.1,14.3,92,0.00,,,0.00,WUHU21623XXSP,2013-11-21 00:42:00,
2013-11-20 18:47:00,35.2,33.1,29.02,ESE,112,13.0,14.3,92,0.00,,,0.00,WUHU21623XXSP,2013-11-21 00:47:00,
2013-11-20 18:52:00,35.2,33.1,29.03,SE,135,14.1,14.1,92,0.00,,,0.00,WUHU21623XXSP,2013-11-21 00:52:00,
2013-11-20 18:57:00,35.2,33.1,29.02,SE,135,15.2,16.8,92,0.00,,,0.00,WUHU21623XXSP,2013-11-21 00:57:00,
2013-11-20 19:02:00,35.2,33.1,29.02,ESE,112,12.5,16.8,92,0.00,,,0.00,WUHU21623XXSP,2013-11-21 01:02:00,
2013-11-20 19:07:00,35.4,33.3,29.02,SE,135,16.3,17.9,92,0.00,,,0.00,WUHU21623XXSP,2013-11-21 01:07:00,
2013-11-20 19:12:00,35.4,33.3,29.03,SE,135,9.4,17.9,92,0.00,,,0.00,WUHU21623XXSP,2013-11-21 01:12:00,
2013-11-20 19:17:00,35.4,33.3,29.04,SE,135,14.5,14.5,92,0.00,,,0.00,WUHU21623XXSP,2013-11-21 01:17:00,
2013-11-20 19:22:00,35.4,33.3,29.03,SE,135,17.2,17.2,92,0.00,,,0.00,WUHU21623XXSP,2013-11-21 01:22:00,
2013-11-20 19:27:00,35.4,33.3,29.03,SE,135,15.4,17.2,92,0.00,,,0.00,WUHU21623XXSP,2013-11-21 01:27:00,
2013-11-20 19:32:00,35.4,33.3,29.03,SE,135,12.3,18.8,92,0.00,,,0.00,WUHU21623XXSP,2013-11-21 01:32:00,
2013-11-20 19:37:00,35.4,33.3,29.03,SE,135,21.3,21.3,92,0.00,,,0.00,WUHU21623XXSP,2013-11-21 01:37:00,
2013-11-20 19:42:00,35.4,33.3,29.04,SE,135,14.1,21.3,92,0.00,,,0.00,WUHU21623XXSP,2013-11-21 01:42:00,
2013-11-20 19:47:00,35.4,33.3,29.04,ESE,112,12.8,16.8,92,0.00,,,0.00,WUHU21623XXSP,2013-11-21 01:47:00,
2013-11-20 19:52:00,35.4,33.3,29.03,ESE,112,15.4,15.4,92,0.00,,,0.00,WUHU21623XXSP,2013-11-21 01:52:00,
2013-11-20 19:57:00,35.4,33.3,29.03,SE,135,20.6,20.6,92,0.00,,,0.00,WUHU21623XXSP,2013-11-21 01:57:00,
2013-11-20 20:02:00,35.4,33.3,29.04,SE,135,13.2,20.6,92,0.00,,,0.00,WUHU21623XXSP,2013-11-21 02:02:00,
2013-11-20 20:07:00,35.4,33.3,29.04,SE,135,11.6,17.9,92,0.00,,,0.00,WUHU21623XXSP,2013-11-21 02:07:00,
2013-11-20 20:12:00,35.4,33.3,29.04,SE,135,14.3,15.7,92,0.00,,,0.00,WUHU21623XXSP,2013-11-21 02:12:00,
2013-11-20 20:17:00,35.4,33.3,29.04,ESE,112,13.6,15.7,92,0.00,,,0.00,WUHU21623XXSP,2013-11-21 02:17:00,
2013-11-20 20:22:00,35.4,33.3,29.03,ESE,112,18.8,22.4,92,0.00,,,0.00,WUHU21623XXSP,2013-11-21 02:22:00,
2013-11-20 20:27:00,35.4,33.3,29.04,SE,135,14.1,22.4,92,0.00,,,0.00,WUHU21623XXSP,2013-11-21 02:27:00,
2013-11-20 20:32:00,35.8,33.6,29.03,ESE,112,18.8,18.8,92,0.00,,,0.00,WUHU21623XXSP,2013-11-21 02:32:00,
2013-11-20 20:37:00,35.8,33.6,29.04,SE,135,16.8,18.8,92,0.00,,,0.00,WUHU21623XXSP,2013-11-21 02:37:00,
2013-11-20 20:42:00,35.8,33.6,29.03,SE,135,15.0,19.7,92,0.00,,,0.00,WUHU21623XXSP,2013-11-21 02:42:00,
2013-11-20 20:47:00,35.8,33.6,29.04,ESE,112,15.0,19.7,92,0.00,,,0.00,WUHU21623XXSP,2013-11-21 02:47:00,
2013-11-20 20:52:00,35.8,33.6,29.04,ESE,112,15.0,15.0,92,0.00,,,0.00,WUHU21623XXSP,2013-11-21 02:52:00,
2013-11-20 20:57:00,35.8,33.6,29.04,SE,135,14.5,16.6,92,0.00,,,0.00,WUHU21623XXSP,2013-11-21 02:57:00,
2013-11-20 21:02:00,35.8,33.6,29.03,SE,135,12.3,16.6,92,0.00,,,0.00,WUHU21623XXSP,2013-11-21 03:02:00,
2013-11-20 21:07:00,35.8,33.6,29.04,SE,135,12.8,12.8,92,0.00,,,0.00,WUHU21623XXSP,2013-11-21 03:07:00,
2013-11-20 21:12:00,35.8,33.6,29.04,SE,135,12.1,12.8,92,0.00,,,0.00,WUHU21623XXSP,2013-11-21 03:12:00,
2013-11-20 21:17:00,35.8,33.6,29.04,SE,135,15.2,18.3,92,0.00,,,0.00,WUHU21623XXSP,2013-11-21 03:17:00,
2013-11-20 21:22:00,35.8,33.6,29.04,SE,135,15.7,18.3,92,0.00,,,0.00,WUHU21623XXSP,2013-11-21 03:22:00,
2013-11-20 21:27:00,35.8,33.6,29.03,ESE,112,13.6,15.7,92,0.00,,,0.00,WUHU21623XXSP,2013-11-21 03:27:00,
2013-11-20 21:32:00,35.8,33.6,29.04,SE,135,10.5,13.6,92,0.00,,,0.00,WUHU21623XXSP,2013-11-21 03:32:00,
2013-11-20 21:37:00,35.8,33.6,29.04,SE,135,13.2,13.6,92,0.00,,,0.00,WUHU21623XXSP,2013-11-21 03:37:00,
2013-11-20 21:42:00,35.8,33.6,29.03,SE,135,17.0,17.4,92,0.00,,,0.00,WUHU21623XXSP,2013-11-21 03:42:00,
2013-11-20 21:47:00,35.8,33.6,29.03,SE,135,16.3,17.4,92,0.00,,,0.00,WUHU21623XXSP,2013-11-21 03:47:00,
2013-11-20 21:52:00,35.8,33.6,29.04,SE,135,17.9,17.9,92,0.00,,,0.00,WUHU21623XXSP,2013-11-21 03:52:00,
2013-11-20 21:57:00,35.8,33.6,29.04,SE,135,12.5,17.9,92,0.00,,,0.00,WUHU21623XXSP,2013-11-21 03:57:00,
2013-11-20 22:02:00,35.8,33.6,29.04,SE,135,11.2,17.4,92,0.00,,,0.00,WUHU21623XXSP,2013-11-21 04:02:00,
2013-11-20 22:07:00,35.8,33.6,29.04,ESE,112,9.8,14.5,92,0.00,,,0.00,WUHU21623XXSP,2013-11-21 04:07:00,
2013-11-20 22:12:00,36.0,33.8,29.05,SSE,157,11.2,14.3,92,0.00,,,0.00,WUHU21623XXSP,2013-11-21 04:12:00,
2013-11-20 22:17:00,36.0,33.8,29.04,SE,135,13.2,14.3,92,0.00,,,0.00,WUHU21623XXSP,2013-11-21 04:17:00,
2013-11-20 22:22:00,36.0,33.8,29.04,SE,135,15.9,15.9,92,0.00,,,0.00,WUHU21623XXSP,2013-11-21 04:22:00,
2013-11-20 22:27:00,36.0,33.8,29.05,ESE,112,14.1,15.9,92,0.00,,,0.00,WUHU21623XXSP,2013-11-21 04:27:00,
2013-11-20 22:32:00,36.0,33.8,29.05,SE,135,13.4,15.2,92,0.00,,,0.00,WUHU21623XXSP,2013-11-21 04:32:00,
2013-11-20 22:37:00,36.0,33.8,29.05,SE,135,14.3,14.3,92,0.00,,,0.00,WUHU21623XXSP,2013-11-21 04:37:00,
2013-11-20 22:42:00,36.1,34.0,29.05,SSE,157,11.9,14.3,92,0.00,,,0.00,WUHU21623XXSP,2013-11-21 04:42:00,
2013-11-20 22:47:00,36.1,34.0,29.05,ESE,112,11.6,13.2,92,0.00,,,0.00,WUHU21623XXSP,2013-11-21 04:47:00,
2013-11-20 22:52:00,36.1,34.0,29.05,SSE,157,10.3,12.1,92,0.00,,,0.00,WUHU21623XXSP,2013-11-21 04:52:00,
2013-11-20 22:57:00,36.1,34.0,29.05,SE,135,9.8,12.8,92,0.00,,,0.00,WUHU21623XXSP,2013-11-21 04:57:00,
2013-11-20 23:01:00,36.1,34.0,29.05,SE,135,9.8,12.8,92,0.00,,,0.00,WUHU21623XXSP,2013-11-21 05:01:00,
2013-11-20 23:06:00,36.1,34.0,29.05,SSE,157,6.5,10.7,92,0.00,,,0.00,WUHU21623XXSP,2013-11-21 05:06:00,
2013-11-20 23:11:00,36.1,34.0,29.06,SE,135,8.7,10.1,92,0.00,,,0.00,WUHU21623XXSP,2013-11-21 05:11:00,
2013-11-20 23:16:00,36.1,34.0,29.06,SE,135,8.7,10.1,92,0.00,,,0.00,WUHU21623XXSP,2013-11-21 05:16:00,
2013-11-20 23:22:00,36.1,34.0,29.06,SSE,157,10.7,10.7,92,0.00,,,0.00,WUHU21623XXSP,2013-11-21 05:22:00,
2013-11-20 23:27:00,36.1,34.0,29.06,SE,135,13.0,13.0,92,0.00,,,0.00,WUHU21623XXSP,2013-11-21 05:27:00,
2013-11-20 23:32:00,36.3,34.2,29.06,SE,135,9.6,13.0,92,0.00,,,0.00,WUHU21623XXSP,2013-11-21 05:32:00,
2013-11-20 23:37:00,36.3,34.2,29.06,SE,135,11.4,11.4,92,0.00,,,0.00,WUHU21623XXSP,2013-11-21 05:37:00,
2013-11-20 23:42:00,36.3,34.2,29.06,SE,135,4.7,11.4,92,0.00,,,0.00,WUHU21623XXSP,2013-11-21 05:42:00,
2013-11-20 23:47:00,36.3,34.2,29.06,SE,135,9.6,9.6,92,0.00,,,0.00,WUHU21623XXSP,2013-11-21 05:47:00,
2013-11-20 23:52:00,36.3,34.2,29.07,SE,135,9.2,9.6,92,0.00,,,0.00,WUHU21623XXSP,2013-11-21 05:52:00,
2013-11-20 23:57:00,36.3,34.2,29.06,ESE,112,6.0,9.6,92,0.00,,,0.00,WUHU21623XXSP,2013-11-21 05:57:00,